Meteo Giornale » Osservazioni meteo Francia » Lione-Bron

ore: 15:00 - Osservazioni Meteo Lione-Bron
Lat. 45° 43' N Lon. 4° 57' E Alt. 200 metri s.l.m.

nuvoloso Europe/Paris

20 °C

Nuvoloso

Temp. 24 Ore

14 °C

20 °C

Nord-Ovest

11.1 Km/h

Dew point 12 °C

Umidità 59 %

Visibilità  10 Km

Il sole sorge alle ore 07:24

Il sole tramonta alle ore 19:41

Data e Ora Cielo e Fenomeni T °C DP °C Um. % Pres. hPa Vis. km Vento km/h
Oggi h: 15:00 nuvoloso Nuvoloso 20 12 59 1025 10 NO 11.1
Oggi h: 14:30 molto_nuvoloso Molto Nuvoloso 20 13 64 1026 10 N/NO 11.1
Oggi h: 14:00 molto_nuvoloso Molto Nuvoloso 19 12 63 1026 10 N/NO 13
Oggi h: 13:30 molto_nuvoloso Molto Nuvoloso 19 13 68 1026 10 NO 11.1
Oggi h: 12:30 molto_nuvoloso Molto Nuvoloso 18 12 67 1026 10 N 11.1
Oggi h: 12:00 molto_nuvoloso Molto Nuvoloso 17 12 72 1026 10 N 14.8
Oggi h: 11:30 coperto Coperto 16 12 77 1026 10 N 14.8
Oggi h: 11:00 molto_nuvoloso Molto Nuvoloso 17 13 77 1025 10 N 14.8
Oggi h: 10:30 coperto Coperto 16 12 77 1025 10 N 14.8
Oggi h: 10:00 coperto Coperto 15 12 82 1025 10 N 14.8
Oggi h: 09:30 coperto Coperto 15 13 87 1025 10 N/NO 13
Oggi h: 09:00 coperto Coperto 15 12 82 1024 10 N/NO 13
Oggi h: 08:30 coperto Coperto 15 13 87 1024 10 N/NO 14.8
Oggi h: 08:00 coperto Coperto 15 13 87 1024 10 NO 13
Oggi h: 07:30 coperto Coperto 15 13 87 1023 10 N/NO 13
Oggi h: 07:00 coperto Coperto 15 13 87 1023 10 N/NO 9.3
Oggi h: 06:30 coperto Coperto 15 13 87 1023 10 N/NO 9.3
Oggi h: 06:00 coperto Coperto 15 13 87 1023 10 N/NO 13
Oggi h: 05:30 coperto Coperto 15 13 87 1023 10 N 11.1
Oggi h: 05:00 coperto Coperto 15 13 87 1023 10 N 13
Oggi h: 04:30 coperto Coperto 15 13 87 1023 10 N 13
Oggi h: 04:00 coperto Coperto 15 13 87 1022 10 N 13
Oggi h: 03:30 coperto Coperto 15 14 93 1022 10 N/NO 9.3
Oggi h: 02:00 molto_nuvoloso Molto Nuvoloso 14 13 93 1022 10 N 5.5
Oggi h: 01:30 coperto Coperto 15 14 93 1022 10 N/NO 7.4
Oggi h: 01:00 molto_nuvoloso Molto Nuvoloso 14 13 93 1022 10 N/NO 9.3
Oggi h: 00:30 molto_nuvoloso Molto Nuvoloso 15 13 87 1022 10 N/NO 11.1
Oggi h: 00:00 coperto Coperto 15 14 93 1022 10 N/NO 7.4
Ieri h: 23:30 coperto Coperto 15 14 93 1022 10 N 5.5
Ieri h: 23:00 coperto Coperto 15 14 93 1022 10 N 9.3
Ieri h: 22:30 molto_nuvoloso Molto Nuvoloso 15 14 93 1021 10 N/NO 9.3
Ieri h: 22:00 coperto Coperto 15 14 93 1021 10 N 5.5
Ieri h: 21:30 coperto_pioggia Pioggia 15 14 93 1021 7 N 5.5
Ieri h: 21:00 molto_nuvoloso Molto Nuvoloso 15 14 93 1021 10 N 1.8
Ieri h: 20:30 coperto Coperto 15 14 93 1020 10 N 3.7
Ieri h: 20:00 coperto Coperto 16 14 87 1020 10 N 5.5
Ieri h: 19:30 molto_nuvoloso Molto Nuvoloso 16 14 87 1019 10 NE 7.4
Ieri h: 19:00 sereno Sereno 16 14 87 1019 10 NE 7.4
Ieri h: 18:30 coperto Coperto 16 14 87 1019 10 N/NE 7.4
Ieri h: 18:00 coperto_pioggia Pioggia Debole 16 14 87 1019 10 NE 9.3
Ieri h: 17:30 coperto Coperto 16 14 87 1019 10 N 5.5
Ieri h: 17:00 coperto_pioggia Pioggia Debole 15 14 93 1019 10 N 0